This is the latest recevied weather packets stored in our database for station/object DM2KB-13. If no packets are shown the sender has not sent any weather packets the latest 10 day(s).
| Time | Temp. | Humidity | Pressure | Rain* | Wind** | Luminosity | Snow |
|---|---|---|---|---|---|---|---|
| 1777626868 | 20.56° C | 36% | 1026 hPa | 0 mm | - | 668 W/m² | - |
| 1777626567 | 20° C | 36% | 1026 hPa | 0 mm | - | 661 W/m² | - |
| 1777626267 | 20° C | 37% | 1026 hPa | 0 mm | - | 650 W/m² | - |
| 1777625967 | 19.44° C | 38% | 1026 hPa | 0 mm | - | 642 W/m² | - |
| 1777625667 | 19.44° C | 37% | 1026.1 hPa | 0 mm | - | 633 W/m² | - |
| 1777625366 | 19.44° C | 36% | 1026 hPa | 0 mm | - | 621 W/m² | - |
| 1777625066 | 19.44° C | 39% | 1026.1 hPa | 0 mm | - | 613 W/m² | - |
| 1777624766 | 18.89° C | 40% | 1026.1 hPa | 0 mm | - | 603 W/m² | - |
| 1777624465 | 18.33° C | 40% | 1026.1 hPa | 0 mm | - | 591 W/m² | - |
| 1777624165 | 18.33° C | 39% | 1026.1 hPa | 0 mm | - | 580 W/m² | - |
| 1777623865 | 17.78° C | 40% | 1026.1 hPa | 0 mm | - | 571 W/m² | - |
| 1777623564 | 17.22° C | 44% | 1026.1 hPa | 0 mm | - | 559 W/m² | - |
| 1777623264 | 16.67° C | 49% | 1026.2 hPa | 0 mm | - | 547 W/m² | - |
| 1777622964 | 16.11° C | 49% | 1026.2 hPa | 0 mm | - | 536 W/m² | - |
| 1777622664 | 15.56° C | 50% | 1026.2 hPa | 0 mm | - | 524 W/m² | - |
| 1777622363 | 15.56° C | 52% | 1026.2 hPa | 0 mm | - | 512 W/m² | - |
| 1777622063 | 15° C | 51% | 1026.2 hPa | 0 mm | - | 499 W/m² | - |
| 1777621763 | 14.44° C | 53% | 1026.2 hPa | 0 mm | - | 202 W/m² | - |
| 1777621463 | 14.44° C | 54% | 1026.1 hPa | 0 mm | - | 171 W/m² | - |
| 1777621162 | 13.89° C | 54% | 1026.1 hPa | 0 mm | - | 40 W/m² | - |
| 1777620862 | 13.89° C | 54% | 1026.2 hPa | 0 mm | - | 39 W/m² | - |
| 1777620562 | 13.89° C | 53% | 1026.2 hPa | 0 mm | - | 39 W/m² | - |
| 1777620261 | 13.33° C | 55% | 1026.2 hPa | 0 mm | - | 40 W/m² | - |
| 1777619961 | 12.78° C | 56% | 1026.2 hPa | 0 mm | - | 42 W/m² | - |
| 1777619661 | 12.78° C | 57% | 1026.2 hPa | 0 mm | - | 37 W/m² | - |
* Rain latest hour (hover to see other rain measurements)
** Current wind speed in m/s (hover to see current wind gust speed)